Location: Drocourt
(49.0571°N, 1.7669°E)
Time: 00:37:18
(UTC+00:00)

Courier 1B Rocket - All Passes

Search period start: 17 April 2024 00:00
Search period end: 27 April 2024 00:00
Orbit: 920 x 1201 km, 28.2° (Epoch: 16 April)

Date Brightness Start Highest point End Pass type
(mag) Time Alt. Az. Time Alt. Az. Time Alt. Az.
17 Apr - 06:48:24 10° SSW 06:50:29 11° S 06:52:32 10° SSE daylight
18 Apr - 05:47:51 10° S 05:49:45 11° S 05:51:37 10° SSE daylight
18 Apr - 07:40:11 10° SSW 07:41:46 11° S 07:43:19 10° S daylight
19 Apr - 04:48:15 10° S 04:49:00 10° SSE 04:49:45 10° SSE daylight
19 Apr - 06:38:34 10° SSW 06:41:04 12° S 06:43:29 10° SSE daylight
20 Apr - 05:37:30 10° SSW 05:40:18 13° S 05:43:02 10° SSE daylight
21 Apr - 04:36:49 10° SSW 04:39:31 12° S 04:42:11 10° SSE daylight
21 Apr - 06:29:12 10° SSW 06:31:36 12° S 06:33:55 10° SSE daylight
22 Apr - 03:36:40 10° S 03:38:43 11° SSE 03:40:44 10° SSE visible
22 Apr - 05:27:42 10° SSW 05:30:49 13° S 05:33:52 10° SSE daylight
23 Apr - 04:26:38 10° SSW 04:30:01 14° S 04:33:20 10° SSE daylight
23 Apr - 06:20:29 10° SSW 06:22:05 11° SSW 06:23:40 10° S daylight
24 Apr - 03:25:55 10° SSW 03:29:12 13° S 03:32:25 10° SSE visible
24 Apr - 05:18:19 10° SSW 05:21:19 13° S 05:24:16 10° SSE daylight
25 Apr - 02:25:43 10° S 02:28:22 12° SSE 02:30:59 10° SSE visible
25 Apr - 04:16:54 10° SSW 04:20:31 14° S 04:24:03 10° SSE daylight
26 Apr - 01:27:18 10° SSE 01:27:32 10° SSE 01:27:46 10° SSE visible
26 Apr - 03:15:52 10° SSW 03:19:40 14° S 03:23:24 10° SSE visible
26 Apr - 05:09:26 10° SSW 05:11:47 12° SSW 05:14:07 10° S daylight
